FW3102 Weather Reports


Display with metric or nautical units.
time (UTC)temp
F
wind
direction
speed
MPH
gust
MPH
rain 1hr
in
rain 24hr
in
rain mn
in
humidity
%
barometer
mb
20260505010003 53 314 4.0 11.0 0.00 0.00 0.00 36 1015.5
20260505004511 53 70 4.0 12.0 0.00 0.00 0.00 36 1015.6
20260505003000 54 80 4.0 8.0 0.00 0.00 0.00 36 1015.4
20260505001600 53 302 4.0 9.0 0.00 0.00 0.00 34 1015.2
20260505000104 55 323 3.0 10.0 0.00 0.00 0.00 33 1015.1
20260504234624 55 27 3.0 9.0 0.00 0.00 0.00 33 1015.1
20260504233058 54 26 4.0 11.0 0.00 0.00 0.00 34 1015.2
20260504231604 54 61 5.0 11.0 0.00 0.00 0.00 33 1015.1
20260504230054 54 271 4.0 13.0 0.00 0.00 0.00 33 1015.1
20260504224603 55 312 5.0 15.0 0.00 0.00 0.00 32 1015.0
20260504223050 55 124 3.0 12.0 0.00 0.00 0.00 34 1015.0
20260504221559 55 34 6.0 12.0 0.00 0.00 0.00 35 1014.9
20260504220048 55 39 5.0 12.0 0.00 0.00 0.00 33 1015.0
20260504214549 54 39 3.0 10.0 0.00 0.00 0.00 35 1015.0
20260504213043 53 34 4.0 13.0 0.00 0.00 0.00 35 1015.2
20260504211539 54 39 4.0 9.0 0.00 0.00 0.00 33 1015.2
20260504210040 53 27 6.0 12.0 0.00 0.00 0.00 34 1015.2
20260504204613 54 69 4.0 12.0 0.00 0.00 0.00 34 1015.4
20260504203034 53 294 5.0 16.0 0.00 0.00 0.00 36 1015.1
20260504201531 53 61 3.0 12.0 0.00 0.00 0.00 37 1015.5
20260504200035 52 54 3.0 10.0 0.00 0.00 0.00 39 1015.5
20260504194528 51 41 4.0 15.0 0.00 0.00 0.00 40 1015.6
20260504193025 50 338 4.0 11.0 0.00 0.00 0.00 42 1015.6
20260504191521 50 34 3.0 15.0 0.00 0.00 0.00 42 1015.6
20260504190020 49 295 5.0 16.0 0.00 0.00 0.00 45 1016.0
20260504184517 48 66 2.0 13.0 0.00 0.00 0.00 46 1016.0
20260504183016 48 340 4.0 15.0 0.00 0.00 0.00 47 1016.0
20260504181514 47 348 5.0 11.0 0.00 0.00 0.00 48 1016.0
20260504180012 47 307 4.0 12.0 0.00 0.00 0.00 49 1016.0
20260504174509 47 297 4.0 10.0 0.00 0.00 0.00 50 1015.9
20260504173008 47 13 4.0 11.0 0.00 0.00 0.00 52 1015.9
20260504171524 46 335 4.0 10.0 0.00 0.00 0.00 51 1015.7
20260504150104 41 79 4.0 12.0 0.00 0.00 0.00 63 1015.7
20260504081516 41 71 0.0 3.0 0.00 0.00 0.00 60 1013.0
20260504044535 50 44 1.0 5.0 0.00 0.00 0.00 41 1011.0
20260504043025 50 65 2.0 11.0 0.00 0.00 0.00 39 1010.8
20260504041522 51 42 3.0 9.0 0.00 0.00 0.00 38 1010.6
20260504040023 51 32 2.0 7.0 0.00 0.00 0.00 37 1010.3
20260504034519 52 98 3.0 9.0 0.00 0.00 0.00 36 1010.1
20260504033016 52 316 4.0 9.0 0.00 0.00 0.00 35 1009.9
20260504031514 53 299 4.0 12.0 0.00 0.00 0.00 35 1009.6
20260504030013 54 321 4.0 13.0 0.00 0.00 0.00 35 1009.3
20260504024510 54 33 4.0 11.0 0.00 0.00 0.00 36 1008.9
20260504023009 54 37 3.0 10.0 0.00 0.00 0.00 40 1008.8
20260504021507 54 65 4.0 10.0 0.00 0.00 0.00 40 1008.7
20260504020009 55 43 3.0 8.0 0.00 0.00 0.00 40 1008.6
20260504014506 55 40 3.0 12.0 0.00 0.00 0.00 39 1008.5
20260504013002 56 349 4.0 13.0 0.00 0.00 0.00 37 1008.3
20260504011605 57 49 2.0 14.0 0.00 0.00 0.00 38 1007.9